This demonstration page uses our WeatherBlox Daily Observations layout. Learn more.

Left ArrowRight Arrow

36.17497, -115.13722

Hourly Observations for May 28, 2017

Temp ( °F °C ) Dew Point ( °F °C ) Humidity (%) Winds ( mph kmh ) Pressure ( in mb ) Visibility ( mi km ) Precip ( " mm )
12:53 am 00:53 Clear 80 26.7 22 -5.6 11 11 E 7 11 29.95 1014 10 16 0.00 0.00
1:53 am 01:53 Clear 79 26.1 23 -5 12 12 E 5 7 29.96 1014 10 16 0.00 0.00
2:53 am 02:53 Clear 77 25 26 -3.3 15 15 SW 8 13 29.96 1014 10 16 0.00 0.00
3:53 am 03:53 Clear 74 23.3 27 -2.8 17 17 WSW 5 7 29.97 1015 10 16 0.00 0.00
4:53 am 04:53 Clear 71 21.7 27 -2.8 19 19 NNW 6 9 29.99 1016 10 16 0.00 0.00
5:53 am 05:53 Sunny 71 21.7 29 -1.7 21 21 NW 5 7 30.00 1016 10 16 0.00 0.00
6:53 am 06:53 Sunny 75 23.9 28 -2.2 18 18 Calm 30.02 1017 10 16 0.00 0.00
7:53 am 07:53 Sunny 79 26.1 26 -3.3 14 14 N 7 11 30.03 1017 10 16 0.00 0.00
8:53 am 08:53 Sunny 82 27.8 24 -4.4 12 12 E 6 9 30.03 1017 10 16 0.00 0.00
9:53 am 09:53 Sunny 83 28.3 23 -5 11 11 Calm 30.03 1017 10 16 0.00 0.00
10:53 am 10:53 Sunny 86 30 21 -6.1 9 9 undefined N/A 30.01 1016 10 16 0.00 0.00
11:53 am 11:53 Sunny 87 30.6 20 -6.7 8 8 WSW 5 7 30.00 1016 10 16 0.00 0.00
12:53 pm 12:53 Sunny 90 32.2 17 -8.3 7 7 VRB 5 7 29.97 1015 10 16 0.00 0.00
1:53 pm 13:53 Sunny 91 32.8 15 -9.4 6 6 VRB 3 6 29.94 1014 10 16 0.00 0.00
2:53 pm 14:53 Sunny 93 33.9 11 -11.7 5 5 N 9 15 29.93 1013 10 16 0.00 0.00
3:53 pm 15:53 Sunny 93 33.9 12 -11.1 5 5 VRB 6 9 29.91 1013 10 16 0.00 0.00
4:53 pm 16:53 Sunny 93 33.9 10 -12.2 4 4 SSE 10 17 29.89 1012 10 16 0.00 0.00
5:53 pm 17:53 Sunny 94 34.4 10 -12.2 4 4 E 9 15 29.88 1012 10 16 0.00 0.00
6:53 pm 18:53 Sunny 93 33.9 11 -11.7 5 5 VRB 3 6 29.87 1011 10 16 0.00 0.00
7:53 pm 19:53 Clear 90 32.2 9 -12.8 5 5 E 7 11 29.86 1011 10 16 0.00 0.00
8:53 pm 20:53 Clear 89 31.7 11 -11.7 5 5 Calm 29.87 1011 10 16 0.00 0.00
9:53 pm 21:53 Clear 84 28.9 24 -4.4 11 11 WNW 6 9 29.88 1012 10 16 0.00 0.00
10:53 pm 22:53 Clear 80 26.7 23 -5 12 12 NNW 3 6 29.88 1012 10 16 0.00 0.00
11:53 pm 23:53 Clear 79 26.1 22 -5.6 12 12 NW 6 9 29.87 1012 10 16 0.00 0.00

Powered by AerisWeather